Zurück zum Katalog

FIREFLY ALPHA R/B

AktivSSO
NORAD 60210·ROCKET BODY·🇺🇸 United States

Gestartet Jul 4, 2024 von Vandenberg Space Force Base

Loading…

Nächste Überflüge (nächste 24 Stunden)

TLE

AktuellSource: Space-Track

Epoche: Sep 14, 2026, 14:40 UTC

1 60210U 24125H   26257.61143205  .00056241  00000-0  39054-3 0  9999
2 60210  97.1947 124.1749 0015948 194.5086 165.5723 15.74096066124006

Verfolge FIREFLY ALPHA R/B in Echtzeit mit AllMySat

Download on the App Store